sat.trackr.live / text

‹ back to catalog

STARLINK-34504

NORAD 64600 · 2025-137G

PAYLOAD ACTIVE UNKNOWN

§ Identity

Operator
Country
US
Launch date
2025-06-25
Launch site
AFETR
Launch vehicle
Mass (kg)
RCS (m²)

Purposes: comms

External: N2YO · Heavens-Above · Gunter

§ Orbital elements

Epoch: 2026-05-24T22:31:42.040992Z

Period
94.10 min
Inclination
53.1616°
Eccentricity
0.0001176
Mean motion
15.30207591 rev/d
Perigee alt
474.4 km
Apogee alt
476.0 km
Semi-major
6,853.3 km
B*
4.4221e-4
RAAN
341.4479°
Arg perigee
80.7473°
Mean anomaly
279.3661°
Rev number
5,240

§ Raw data

STARLINK-345041 64600U 25137G   26144.93868103  .00012763  00000+0  44221-3 0  99932 64600  53.1616 341.4479 0001176  80.7473 279.3661 15.30207591 52404

JSON: /api/v1/satellites/64600 · /tle

For live sub-satellite position, see the globe view (requires WebGL).

§ Visibility from observer

Set your observer location to see the next 7 days of passes ≥ 10°. The values pass through the URL so the page stays shareable.

No JS? Fill the form by hand. The geolocation button needs JavaScript.